Flag for U.S.A. Weather past 2 weeks in El Monte, California, U.S.A.

Now
65 °F

Clear.


Feels Like: 65 °F
Forecast: 59 / 77 °F
Wind: 5 mph from East

Location: Fullerton Municipal Airport

Current Time: Oct 26, 2014 at 1:49:09 AM

Latest Report: Oct 26, 2014 at 12:53 AM


Visibility: 10 mi

Pressure: 29.99 "Hg

Humidity: 78%

Dew point: 58 °F

Location of El MonteLocation

Historic Weather in El Monte — Graph

°F

El Monte temperature yesterday

Maximum temperature yesterday: 83 °F (at 12:53 PM)
Minimum temperature yesterday: 62 °F (at 2:53 AM)
Average temperature yesterday: 71 °F

Past Weeks' High & Low Weather Summary

 TemperatureHumidityPressure
High88 °F (Oct 24, 2:53 PM)87% (Oct 13, 3:53 AM)30.05 "Hg (Oct 13, 3:53 AM)
Low57 °F (Oct 24, 6:53 AM)13% (Oct 24, 2:53 PM)29.81 "Hg (Oct 19, 4:53 PM)
Average71 °F66%29.92 "Hg
* Reported Oct 11 12:53 AM — Oct 26 12:53 AM, El Monte, Weather by CustomWeather, © 2014

Note: Actual official high and low records may vary slightly from our data, if they occured in-between our weather recording intervals... More about our weather records

Advertising

El Monte weather history for previous 24 hours

 ConditionsComfort  
Time TempWeatherWind HumidityBarometerVisibility
12:53 AM
Oct 26
65 °FClear.5 mph78%29.99 "Hg10 mi
11:53 PM
Oct 25
68 °FClear.5 mph73%29.99 "Hg10 mi
10:53 PM68 °FClear.No wind76%30.00 "Hg10 mi
9:53 PM68 °FClear.No wind76%30.00 "Hg10 mi
8:53 PM69 °FClear.3 mph68%30.00 "Hg10 mi
7:53 PM71 °FClear.3 mph57%29.99 "Hg10 mi
6:53 PM72 °FSunny.3 mph49%29.98 "Hg10 mi
5:53 PM74 °FSunny.7 mph50%29.97 "Hg10 mi
4:53 PM78 °FSunny.8 mph40%29.97 "Hg10 mi
3:53 PM82 °FPassing clouds.5 mph29%29.98 "Hg10 mi
2:53 PM82 °FPassing clouds.9 mph38%29.99 "Hg10 mi
1:53 PM82 °FPassing clouds.9 mph41%30.00 "Hg10 mi
12:53 PM83 °FPassing clouds.5 mph31%30.01 "Hg10 mi
11:53 AM80 °FPassing clouds.3 mph39%30.03 "Hg10 mi
10:53 AM76 °FSunny.6 mph54%30.05 "Hg10 mi
9:53 AM73 °FSunny.No wind59%30.04 "Hg10 mi
8:53 AM70 °FScattered clouds.No wind73%30.03 "Hg9 mi
7:53 AM67 °FOvercast.No wind79%30.01 "Hg9 mi
6:53 AM65 °FOvercast.No wind78%29.99 "Hg10 mi
5:53 AM65 °FMostly cloudy.No wind73%29.98 "Hg10 mi
4:53 AM64 °FOvercast.No wind70%29.96 "Hg10 mi
3:53 AM63 °FClear.No wind65%29.97 "Hg10 mi
2:53 AM62 °FClear.No wind70%29.98 "Hg10 mi
1:53 AM63 °FClear.No wind73%30.01 "Hg10 mi
Weather by CustomWeather, © 2014

See weather overviewHow to use our weather pages